CW4778 Auckland NZ current weather conditions

sailwx.info

Wind from 102 at 2 knots gusting 6

Air temperature 12.8° C
Dewpoint 11.0° C

Last reported at 2017-May-25 06:07 UTC.
Time now 2017-May-25 06:56 UTC

Location: S 36°52' E 174°44'.
View on Google Maps.

See reports from other nearby stations

  
Tides and Currents Weather Stations Pressure Air Temp Water Temp Dewpoint Dewpoint Depression Visibility Wind Speed Wind Dir Waves Ship Positions
date/time (UTC)wind fromknots sea level pressurealtimeterstation pressurevisibilityair tempwater tempwave heightnotes
2017-May-25 06:07 102 2 gusting 6 12.8
2017-May-25 05:57 108 4 gusting 6 12.8
2017-May-25 05:47 101 3 gusting 6 12.8
2017-May-25 05:37 054 4 gusting 6 13.3
2017-May-25 05:27 061 2 gusting 6 13.3
2017-May-25 05:17 054 4 gusting 6 13.3
2017-May-25 04:57 055 4 gusting 5 13.9
2017-May-25 04:47 055 3 gusting 5 13.9
2017-May-25 04:37 067 1 gusting 5 14.4
2017-May-25 04:27 067 2 gusting 6 15.0
2017-May-25 04:17 085 4 gusting 6 15.0
2017-May-25 03:57 027 1 gusting 4 15.6
2017-May-25 03:27 060 3 gusting 6 15.6
2017-May-25 03:07 056 2 gusting 7 15.6
2017-May-25 02:57 053 3 gusting 6 16.1
2017-May-25 02:47 036 2 gusting 6 16.1
2017-May-25 02:37 16.1
2017-May-25 02:17 020 3 gusting 6 16.7
2017-May-25 02:07 038 4 gusting 8 16.7
2017-May-25 01:57 012 6 gusting 8 16.7
2017-May-25 01:47 16.7
2017-May-25 01:27 010 0 gusting 5 16.7
2017-May-25 01:07 345 3 gusting 6 17.2
2017-May-25 00:57 351 1 gusting 6 17.2
2017-May-25 00:37 358 0 gusting 5 17.8
2017-May-25 00:17 299 16.7
2017-May-25 00:07 269 0 gusting 2 16.7
2017-May-24 23:47 273 2 gusting 4 16.7
2017-May-24 23:27 269 1 gusting 4 16.7
2017-May-24 23:17 269 2 gusting 5 15.6
2017-May-24 23:07 298 15.0
2017-May-24 22:57 325 13.3
2017-May-24 22:47 287 13.9
2017-May-24 22:37 290 12.2
2017-May-24 22:27 289 12.8
2017-May-24 22:17 289 12.8
2017-May-24 22:07 290 11.7
2017-May-24 21:47 230 11.1
2017-May-24 21:37 228 11.1
2017-May-24 21:27 228 0 gusting 1 10.6
2017-May-24 21:17 229 11.1
2017-May-24 21:07 232 11.1
2017-May-24 20:57 227 2 gusting 4 11.1
2017-May-24 20:47 224 10.0
2017-May-24 20:37 222 10.0
2017-May-24 20:27 222 9.4
2017-May-24 20:17 222 8.9
2017-May-24 20:07 221 8.3
2017-May-24 19:57 221 8.3
2017-May-24 19:37 221 7.8
2017-May-24 19:07 251 2 gusting 6 7.2
2017-May-24 18:37 217 6.7
2017-May-24 18:27 216 6.7
2017-May-24 18:07 217 6.7
2017-May-24 17:37 217 7.2
2017-May-24 17:27 217 7.2
2017-May-24 17:17 217 7.2
2017-May-24 17:07 217 7.8
2017-May-24 16:57 218 7.8
2017-May-24 16:17 218 7.8
2017-May-24 16:07 217 8.3
2017-May-24 15:57 218 8.3
2017-May-24 15:47 216 8.3
2017-May-24 15:27 217 7.8
2017-May-24 15:17 217 7.8
2017-May-24 14:57 216 8.9
2017-May-24 14:37 218 8.9
2017-May-24 13:57 217 9.4
2017-May-24 13:47 218 10.0
2017-May-24 13:37 218 10.0
2017-May-24 13:17 217 10.0
2017-May-24 13:07 217 10.0
2017-May-24 12:47 217 9.4
2017-May-24 12:37 216 9.4
2017-May-24 12:27 216 9.4
2017-May-24 12:17 217 9.4
2017-May-24 12:07 217 9.4
2017-May-24 11:57 216 9.4
2017-May-24 11:47 216 10.0
2017-May-24 11:37 217 10.0
2017-May-24 11:27 216 10.0
2017-May-24 10:57 216 10.6
2017-May-24 10:47 218 10.6
2017-May-24 10:37 216 11.1
2017-May-24 10:17 217 11.1
2017-May-24 09:57 217 11.7
2017-May-24 09:47 217 11.1
2017-May-24 09:27 218 11.7
2017-May-24 09:07 217 11.7
2017-May-24 08:47 217 12.2
2017-May-24 08:37 216 12.8
2017-May-24 08:17 217 13.3
2017-May-24 08:07 217 1 gusting 4 13.3
2017-May-24 07:57 216 13.3
2017-May-24 07:47 217 0 gusting 2 13.3
2017-May-24 07:27 319 0 gusting 4 14.4
2017-May-24 07:17 256 1 gusting 2 13.9
2017-May-24 07:07 256 0 gusting 2 13.9
2017-May-24 06:57 336 13.9
2017-May-24 06:47 258 1 gusting 6 14.4
2017-May-24 06:17 294 1 gusting 6 14.4
2017-May-24 05:57 338 2 gusting 5 14.4
2017-May-24 05:47 316 1 gusting 6 14.4
2017-May-24 05:37 304 2 gusting 7 14.4
2017-May-24 05:17 340 4 gusting 10 15.0
2017-May-24 05:07 313 2 gusting 6 15.0
2017-May-24 04:58 292 5 gusting 6 15.0
2017-May-24 04:07 261 2 gusting 5 15.6
2017-May-24 03:57 260 2 gusting 10 15.6
2017-May-24 03:47 284 4 gusting 11 16.1
2017-May-24 03:37 267 4 gusting 7 16.7
2017-May-24 03:17 279 7 gusting 13 17.2
2017-May-24 03:07 304 3 gusting 11 17.8
2017-May-24 02:47 308 4 gusting 13 18.3
2017-May-24 02:17 298 7 gusting 17 18.3
2017-May-24 01:57 337 6 gusting 13 18.9
2017-May-24 01:47 299 10 gusting 15 19.4
2017-May-24 01:37 311 7 gusting 17 18.9
2017-May-24 01:27 296 6 gusting 11 18.3
2017-May-24 01:07 313 8 gusting 12 19.4
2017-May-24 00:57 317 7 gusting 12 19.4
2017-May-24 00:47 339 6 gusting 12 18.3
2017-May-24 00:37 331 6 gusting 10 18.3
2017-May-24 00:17 325 5 gusting 10 18.9
2017-May-24 00:07 319 6 gusting 10 18.9
2017-May-23 23:57 307 4 gusting 6 18.9
2017-May-23 23:47 319 5 gusting 7 17.8
2017-May-23 23:37 339 1 gusting 6 17.8
2017-May-23 23:27 307 4 gusting 6 17.2
2017-May-23 23:17 346 1 gusting 6 17.8
2017-May-23 22:47 295 2 gusting 6 18.9
2017-May-23 22:37 283 2 gusting 6 18.3
2017-May-23 22:27 300 3 gusting 6 17.2
2017-May-23 22:17 340 0 gusting 6 15.0
2017-May-23 22:07 337 2 gusting 5 14.4
2017-May-23 21:57 314 2 gusting 6 13.9
2017-May-23 21:27 273 0 gusting 5 13.3
2017-May-23 21:17 301 2 gusting 6 13.3
2017-May-23 20:57 294 12.8
2017-May-23 20:47 296 12.8
2017-May-23 20:37 293 11.1
2017-May-23 20:27 297 10.6
2017-May-23 19:57 299 10.6
2017-May-23 19:47 332 9.4
2017-May-23 19:37 294 8.9
2017-May-23 19:07 298 8.9
2017-May-23 18:47 298 8.9
2017-May-23 18:37 294 8.9
2017-May-23 18:17 298 8.9
2017-May-23 17:47 294 8.9
2017-May-23 17:37 293 8.9
2017-May-23 17:27 327 9.4
2017-May-23 17:17 294 9.4
2017-May-23 16:57 295 10.0
2017-May-23 16:47 292 10.0
2017-May-23 16:17 302 0 gusting 5 11.1
2017-May-23 16:07 326 1 gusting 5 11.1
2017-May-23 15:57 296 0 gusting 2 11.1
2017-May-23 15:47 294 10.6
2017-May-23 15:37 294 10.6
2017-May-23 15:27 296 11.1
2017-May-23 15:17 290 11.1
2017-May-23 14:47 349 5 gusting 7 11.1
2017-May-23 14:37 315 10.6
2017-May-23 14:17 292 10.6
2017-May-23 14:07 328 10.6
2017-May-23 13:57 293 1 gusting 2 10.6
2017-May-23 13:37 344 0 gusting 2 10.6
2017-May-23 13:17 303 2 gusting 4 11.1
2017-May-23 13:07 316 11.1
2017-May-23 12:47 320 0 gusting 2 11.1
2017-May-23 12:27 319 10.6
2017-May-23 12:07 328 10.0
2017-May-23 11:57 344 10.0
2017-May-23 11:47 322 9.4
2017-May-23 11:37 330 9.4
2017-May-23 11:07 322 10.6
2017-May-23 10:57 317 11.1
2017-May-23 10:47 322 1 gusting 5 11.7
2017-May-23 10:27 294 1 gusting 4 11.7
2017-May-23 10:17 285 0 gusting 1 11.1
2017-May-23 10:07 282 11.1
2017-May-23 09:57 286 11.1
2017-May-23 09:47 279 11.1
2017-May-23 09:27 294 11.7
2017-May-23 09:17 282 11.1
2017-May-23 09:07 283 11.1
2017-May-23 08:37 281 11.1
2017-May-23 08:27 279 11.7
2017-May-23 08:17 283 11.7
2017-May-23 08:07 279 1 gusting 2 11.7
2017-May-23 07:57 280 0 gusting 1 11.7
2017-May-23 07:47 279 11.7
2017-May-23 07:37 300 1 gusting 4 11.1
2017-May-23 07:27 332 11.1
2017-May-23 07:17 308 11.1
2017-May-23 06:57 308 11.1
2017-May-23 06:47 309 11.1
2017-May-23 06:37 306 11.7
2017-May-23 06:27 307 11.7
2017-May-23 06:17 308 11.1